Location: Albuquerque Trailhead
(34.7934°N, 106.3736°W)
Time: 02:52:38
(UTC+00:00)

SL-14 R/B - Visible Passes

Search period start: 23 October 2021 00:00
Search period end: 02 November 2021 00:00
Orbit: 518 x 554 km, 82.4° (Epoch: 22 October)

Date Brightness Start Highest point End Pass type
(mag) Time Alt. Az. Time Alt. Az. Time Alt. Az.
23 Oct 3.2 12:02:37 10° S 12:06:34 90° W 12:10:30 10° N visible
24 Oct 3.2 11:53:54 10° S 11:57:50 88° E 12:01:45 10° N visible
25 Oct 3.2 11:45:10 10° S 11:49:06 86° E 11:53:01 10° N visible
26 Oct 3.2 11:36:27 10° S 11:40:22 84° E 11:44:17 10° N visible
27 Oct 3.2 11:31:37 81° ESE 11:31:38 81° E 11:35:32 10° N visible
28 Oct 5.1 11:25:22 22° N 11:25:22 22° N 11:26:48 10° N visible
